Temp
-12 -12 -11 -11 -11 -11 -11 -10 -10 -10 -10 -10 -10 -10 -10 -10 -10 -10 -10 -11 -11 -11 -11 -11 -10 -10 -9 -9 -9 -9 -8 -8 -8 -9 -9 -11 -10 -10 -10 -9 -8 -8 -8 -9 -9
-12 -11 -11 -11 -11 -11 -11 -11 -11 -11 -10 -10 -9 -9 -9 -9 -10 -10 -10 -11 -12 -12 -11 -11 -11 -12 -11 -10 -10 -9 -9 -8 -9 -9 -9 -10 -9 -9 -10 -10 -10 -10 -10 -9 -10
-12 -12 -12 -12 -12 -11 -11 -11 -11 -11 -11 -11 -10 -10 -9 -9 -10 -10 -10 -11 -12 -12 -12 -11 -11 -11 -11 -11 -10 -10 -8 -10 -10 -10 -10 -10 -8 -9 -10 -9 -10 -10 -10 -10 -10
-12 -12 -12 -12 -12 -12 -11 -11 -11 -11 -11 -11 -11 -10 -10 -10 -10 -10 -10 -10 -10 -12 -12 -11 -11 -11 -11 -11 -11 -11 -10 -10 -10 -10 -10 -11 -10 -8 -8 -9 -10 -11 -11 -10 -10
-12 -12 -12 -12 -12 -12 -12 -12 -12 -11 -11 -11 -11 -11 -11 -10 -11 -10 -10 -10 -11 -11 -11 -12 -12 -12 -11 -11 -11 -11 -10 -10 -10 -10 -11 -11 -11 -10 -10 -10 -10 -10 -10 -9 -9
-12 -12 -12 -12 -12 -12 -12 -12 -12 -12 -12 -12 -12 -11 -11 -11 -11 -11 -10 -10 -11 -11 -11 -11 -11 -12 -12 -12 -11 -11 -11 -11 -11 -10 -10 -10 -10 -10 -9 -10 -10 -10 -10 -10 -10
-12 -12 -12 -12 -12 -12 -12 -12 -12 -12 -12 -12 -12 -12 -12 -12 -11 -11 -11 -11 -10 -10 -11 -11 -12 -12 -12 -12 -11 -11 -11 -11 -10 -10 -11 -11 -10 -9 -9 -10 -10 -10 -10 -10 -10
-13 -13 -13 -12 -12 -12 -12 -12 -12 -12 -11 -11 -11 -11 -11 -11 -11 -12 -11 -11 -11 -11 -11 -11 -12 -11 -12 -11 -11 -11 -11 -10 -9 -10 -10 -11 -8 -9 -9 -10 -10 -9 -9 -10 -10
-13 -13 -13 -13 -13 -13 -13 -12 -12 -12 -12 -12 -12 -12 -12 -11 -11 -11 -11 -11 -11 -11 -11 -11 -11 -12 -12 -11 -11 -11 -10 -9 -10 -11 -11 -11 -7 -9 -10 -10 -10 -10 -10 -9 -9
-13 -13 -13 -13 -13 -13 -12 -12 -12 -12 -11 -11 -11 -11 -11 -11 -11 -11 -11 -11 -11 -11 -11 -11 -11 -11 -11 -11 -10 -10 -10 -10 -10 -10 -11 -11 -8 -9 -9 -10 -10 -10 -9 -9 -8
-14 -13 -13 -13 -13 -13 -12 -12 -12 -13 -12 -11 -11 -11 -11 -11 -11 -11 -12 -11 -11 -11 -12 -12 -12 -11 -11 -11 -11 -11 -11 -11 -11 -11 -12 -11 -9 -9 -10 -10 -9 -8 -8 -8 -8
-14 -13 -13 -13 -13 -12 -12 -12 -12 -12 -12 -13 -14 -16 -17 -16 -14 -15 -14 -12 -12 -12 -12 -12 -11 -11 -11 -11 -11 -11 -11 -11 -11 -12 -11 -11 -10 -9 -9 -9 -9 -9 -8 -8 -8
-14 -14 -14 -13 -13 -13 -13 -14 -14 -15 -15 -18 -20 -21 -22 -23 -22 -22 -20 -17 -15 -14 -13 -13 -11 -12 -12 -11 -11 -11 -11 -11 -11 -11 -11 -11 -10 -9 -9 -9 -9 -8 -8 -8 -8
-14 -14 -14 -14 -15 -15 -15 -16 -16 -17 -18 -20 -21 -22 -23 -22 -23 -23 -23 -22 -21 -18 -17 -15 -13 -12 -13 -12 -11 -11 -11 -11 -11 -11 -11 -12 -9 -9 -9 -8 -8 -8 -8 -9 -9
-15 -15 -15 -15 -15 -16 -17 -17 -18 -19 -21 -22 -22 -23 -23 -24 -23 -23 -23 -23 -23 -21 -21 -15 -14 -13 -13 -13 -13 -11 -11 -11 -11 -11 -11 -11 -11 -7 -9 -8 -8 -9 -9 -9 -10
-15 -15 -15 -16 -16 -17 -17 -18 -19 -20 -21 -23 -23 -24 -24 -25 -24 -23 -22 -23 -23 -22 -22 -19 -19 -18 -15 -14 -14 -13 -12 -12 -11 -11 -11 -10 -11 -7 -8 -9 -9 -9 -9 -10 -9
-16 -15 -16 -17 -17 -17 -18 -19 -20 -21 -23 -23 -24 -24 -24 -24 -24 -23 -23 -23 -22 -22 -22 -21 -20 -18 -17 -16 -15 -13 -13 -12 -12 -12 -10 -10 -10 -7 -9 -9 -9 -9 -10 -10 -9
-16 -16 -16 -17 -18 -18 -19 -19 -20 -22 -23 -23 -24 -25 -25 -24 -25 -24 -23 -23 -23 -22 -22 -22 -22 -20 -19 -18 -16 -14 -13 -13 -12 -11 -10 -10 -9 -8 -8 -9 -9 -10 -10 -9 -8
-16 -16 -16 -18 -18 -19 -20 -19 -20 -22 -23 -24 -24 -25 -25 -25 -25 -25 -23 -23 -23 -22 -22 -22 -22 -22 -21 -20 -18 -16 -15 -14 -14 -12 -10 -10 -9 -8 -8 -9 -10 -10 -9 -9 -9
-16 -16 -17 -18 -19 -20 -20 -20 -21 -23 -24 -24 -24 -25 -25 -25 -25 -24 -24 -24 -23 -23 -23 -22 -22 -22 -22 -22 -19 -18 -17 -16 -14 -13 -11 -10 -9 -8 -8 -10 -11 -10 -9 -9 -9
-17 -17 -17 -18 -19 -20 -20 -20 -21 -23 -24 -24 -24 -24 -25 -24 -24 -24 -24 -24 -23 -23 -23 -22 -22 -22 -23 -22 -21 -19 -18 -18 -16 -13 -11 -10 -9 -8 -8 -10 -11 -11 -10 -10 -9
-17 -17 -17 -18 -19 -20 -20 -20 -21 -23 -23 -24 -24 -24 -25 -24 -24 -24 -24 -24 -24 -23 -23 -23 -22 -22 -22 -22 -22 -22 -20 -19 -16 -12 -11 -10 -9 -9 -9 -10 -12 -11 -11 -10 -9
-17 -17 -17 -18 -19 -20 -21 -21 -21 -22 -23 -23 -24 -24 -24 -24 -24 -24 -24 -24 -24 -23 -23 -23 -22 -22 -22 -22 -22 -22 -20 -19 -15 -14 -11 -10 -8 -12 -10 -11 -12 -12 -11 -10 -10
-17 -18 -18 -18 -19 -19 -20 -21 -21 -22 -23 -23 -23 -23 -24 -24 -24 -23 -23 -24 -23 -24 -23 -23 -22 -22 -22 -22 -22 -21 -21 -20 -18 -13 -11 -10 -9 -11 -11 -12 -12 -12 -11 -10 -10
-17 -18 -18 -18 -19 -20 -20 -21 -21 -22 -23 -23 -23 -23 -23 -23 -23 -23 -24 -23 -23 -23 -23 -23 -22 -22 -22 -22 -22 -22 -21 -20 -17 -14 -11 -10 -9 -13 -12 -13 -12 -12 -11 -10 -10
-18 -19 -19 -18 -19 -20 -21 -21 -21 -22 -22 -23 -23 -23 -23 -23 -23 -23 -24 -24 -23 -23 -23 -23 -22 -22 -22 -22 -22 -22 -22 -21 -18 -14 -11 -10 -10 -13 -13 -12 -12 -11 -11 -11 -11
-18 -18 -19 -19 -19 -20 -20 -21 -21 -21 -22 -22 -23 -23 -23 -23 -23 -23 -23 -23 -23 -23 -22 -22 -22 -22 -22 -22 -22 -22 -21 -21 -18 -15 -12 -10 -12 -13 -13 -13 -12 -12 -11 -12 -12
Height
5777 5777 5777 5777 5777 5777 5777 5777 5779 5780 5780 5781 5782 5784 5785 5787 5791 5792 5798 5800 5800 5804 5808 5811 5813 5814 5816 5820 5823 5824 5823 5832 5839 5842 5844 5843 5846 5846 5847 5848 5851 5849 5847 5849 5847
5772 5772 5772 5772 5772 5772 5772 5772 5771 5771 5772 5772 5773 5775 5777 5779 5781 5783 5785 5787 5790 5792 5800 5800 5802 5803 5807 5811 5811 5813 5815 5825 5836 5836 5836 5834 5839 5842 5841 5844 5845 5846 5846 5844 5844
5768 5767 5766 5765 5765 5765 5765 5765 5765 5765 5764 5764 5764 5766 5768 5770 5771 5770 5771 5773 5776 5780 5788 5790 5791 5792 5795 5799 5801 5804 5806 5820 5826 5827 5826 5826 5827 5834 5835 5836 5842 5841 5841 5841 5839
5761 5760 5760 5759 5758 5757 5756 5756 5755 5755 5756 5755 5756 5756 5757 5759 5760 5757 5759 5760 5763 5765 5772 5778 5780 5782 5786 5791 5797 5793 5800 5806 5817 5816 5817 5819 5817 5818 5826 5833 5835 5835 5836 5835 5836
5756 5755 5753 5752 5751 5751 5750 5748 5747 5746 5745 5744 5744 5746 5748 5750 5748 5743 5748 5750 5752 5754 5758 5761 5765 5772 5775 5781 5782 5785 5794 5791 5800 5807 5808 5809 5810 5813 5813 5818 5825 5827 5828 5831 5831
5750 5748 5747 5746 5744 5743 5741 5740 5739 5738 5736 5735 5734 5734 5736 5738 5732 5733 5733 5736 5739 5742 5744 5748 5751 5756 5759 5765 5770 5778 5779 5782 5784 5792 5797 5796 5801 5804 5809 5820 5818 5817 5820 5821 5821
5746 5744 5742 5740 5738 5735 5733 5731 5729 5728 5725 5724 5723 5723 5725 5719 5720 5719 5720 5724 5724 5728 5731 5734 5736 5738 5746 5751 5758 5764 5764 5766 5773 5777 5780 5787 5787 5793 5805 5808 5809 5811 5810 5811 5812
5741 5739 5736 5733 5730 5728 5724 5721 5718 5715 5714 5711 5710 5710 5708 5706 5706 5706 5708 5707 5709 5713 5717 5718 5720 5725 5731 5737 5744 5749 5750 5754 5766 5769 5771 5773 5773 5792 5795 5794 5796 5800 5803 5803 5804
5734 5731 5729 5726 5722 5719 5716 5712 5706 5704 5701 5697 5696 5694 5689 5687 5688 5688 5691 5691 5693 5696 5702 5700 5706 5712 5717 5722 5727 5732 5739 5744 5754 5761 5757 5754 5762 5776 5783 5782 5785 5787 5790 5791 5792
5728 5724 5721 5718 5714 5710 5706 5702 5694 5689 5685 5680 5677 5678 5670 5667 5666 5668 5669 5673 5676 5679 5682 5684 5689 5695 5703 5708 5715 5726 5733 5733 5733 5744 5747 5746 5753 5763 5767 5768 5771 5773 5776 5778 5781
5722 5718 5714 5710 5705 5700 5695 5689 5684 5675 5668 5662 5656 5651 5646 5643 5639 5641 5638 5648 5652 5658 5662 5665 5669 5686 5702 5703 5702 5709 5710 5712 5721 5728 5734 5735 5742 5751 5752 5753 5758 5763 5766 5768 5772
5715 5711 5707 5702 5696 5690 5684 5677 5670 5664 5654 5643 5632 5624 5615 5608 5609 5608 5609 5624 5629 5636 5639 5645 5660 5679 5679 5678 5686 5693 5697 5704 5711 5715 5719 5728 5727 5736 5742 5746 5752 5755 5758 5761 5762
5709 5705 5700 5694 5688 5682 5675 5667 5658 5649 5641 5630 5624 5615 5609 5603 5595 5592 5591 5596 5604 5610 5617 5627 5650 5654 5656 5661 5671 5678 5683 5695 5701 5705 5709 5715 5713 5727 5735 5739 5743 5745 5748 5752 5755
5703 5699 5694 5687 5682 5674 5667 5658 5649 5640 5631 5624 5614 5608 5603 5596 5593 5585 5582 5580 5582 5591 5597 5608 5628 5632 5637 5647 5655 5664 5674 5685 5688 5693 5700 5706 5702 5715 5730 5733 5735 5737 5743 5746 5749
5698 5692 5686 5679 5674 5666 5659 5650 5641 5632 5623 5613 5607 5598 5595 5590 5586 5583 5579 5576 5578 5583 5582 5604 5607 5611 5619 5633 5640 5657 5659 5671 5675 5682 5689 5697 5695 5717 5724 5725 5732 5735 5735 5738 5739
5691 5687 5679 5672 5665 5659 5651 5642 5633 5625 5615 5607 5599 5590 5584 5584 5579 5577 5575 5573 5572 5575 5576 5588 5588 5594 5610 5616 5625 5639 5646 5658 5663 5669 5671 5693 5693 5707 5715 5722 5724 5725 5723 5726 5731
5686 5681 5673 5665 5658 5651 5643 5635 5628 5617 5606 5599 5592 5585 5580 5577 5573 5571 5571 5569 5569 5572 5572 5573 5579 5590 5595 5603 5612 5624 5632 5643 5649 5651 5672 5687 5687 5699 5709 5711 5715 5715 5718 5724 5727
5682 5676 5668 5660 5652 5645 5638 5631 5621 5608 5600 5594 5585 5580 5574 5572 5569 5567 5566 5567 5567 5569 5568 5572 5577 5580 5588 5594 5605 5614 5621 5630 5638 5649 5666 5677 5679 5690 5704 5706 5708 5711 5716 5720 5723
5677 5670 5662 5655 5647 5639 5633 5625 5611 5602 5595 5587 5582 5576 5572 5568 5566 5565 5565 5565 5565 5568 5569 5571 5573 5575 5581 5585 5595 5603 5608 5627 5629 5641 5654 5667 5676 5685 5696 5704 5706 5710 5712 5716 5718
5673 5665 5657 5649 5642 5635 5629 5618 5606 5596 5590 5583 5576 5573 5568 5566 5565 5563 5563 5562 5563 5563 5564 5569 5570 5572 5575 5580 5586 5595 5604 5610 5617 5631 5646 5658 5668 5674 5690 5699 5700 5705 5708 5711 5712
5669 5660 5653 5645 5639 5631 5622 5613 5603 5593 5586 5581 5575 5569 5566 5565 5563 5562 5562 5561 5561 5561 5562 5565 5568 5572 5573 5576 5581 5586 5592 5600 5612 5625 5639 5652 5661 5670 5683 5694 5692 5700 5704 5706 5708
5663 5656 5648 5641 5635 5627 5617 5607 5599 5590 5584 5579 5573 5569 5565 5563 5562 5561 5561 5559 5559 5559 5560 5561 5562 5565 5569 5571 5574 5574 5582 5589 5602 5619 5632 5641 5652 5663 5675 5683 5684 5692 5700 5703 5705
5661 5651 5643 5635 5630 5624 5615 5605 5595 5588 5583 5578 5572 5568 5565 5561 5561 5560 5559 5558 5558 5557 5557 5558 5560 5563 5565 5566 5566 5569 5576 5584 5593 5604 5618 5629 5640 5656 5666 5668 5677 5688 5693 5697 5700
5659 5649 5640 5632 5624 5617 5611 5604 5596 5586 5581 5576 5572 5568 5564 5561 5557 5555 5555 5555 5554 5555 5555 5556 5557 5558 5560 5559 5558 5563 5566 5576 5583 5595 5610 5625 5633 5656 5660 5664 5674 5680 5685 5690 5695
5655 5647 5637 5630 5621 5613 5608 5601 5593 5585 5579 5575 5571 5567 5563 5560 5556 5551 5549 5548 5548 5549 5551 5552 5553 5553 5553 5553 5553 5555 5558 5565 5571 5587 5601 5618 5625 5647 5654 5661 5668 5674 5680 5685 5689
5651 5644 5636 5627 5619 5611 5605 5599 5592 5584 5578 5574 5570 5566 5561 5556 5552 5548 5543 5540 5540 5542 5545 5548 5549 5549 5549 5547 5546 5546 5550 5557 5566 5580 5595 5609 5624 5637 5646 5655 5661 5670 5675 5679 5685
5648 5641 5633 5625 5617 5611 5604 5596 5590 5584 5576 5571 5568 5564 5559 5552 5547 5542 5537 5533 5533 5537 5542 5544 5544 5543 5545 5544 5541 5541 5544 5552 5563 5575 5588 5600 5619 5629 5637 5648 5658 5666 5671 5675 5682
Wind_Speed
17 18 20 22 25 29 32 33 34 35 35 37 37 38 38 43 56 56 54 57 54 48 48 48 48 49 50 48 48 49 52 50 43 39 36 42 42 41 45 48 42 40 41 39 40
18 19 21 23 24 26 27 30 33 35 37 40 41 42 42 42 42 48 63 64 66 58 53 52 53 54 54 50 52 53 56 52 44 43 44 46 44 40 44 42 37 36 38 42 34
20 22 23 25 26 28 28 29 31 33 36 37 39 42 46 46 46 48 48 63 67 67 65 54 54 59 58 53 54 58 61 51 50 47 44 48 51 45 43 39 29 34 39 37 37
22 23 24 25 27 28 30 31 33 34 36 39 40 41 42 42 47 51 54 54 57 58 72 64 59 62 63 59 57 60 60 58 48 49 49 47 50 56 51 47 44 35 43 39 40
24 23 24 25 26 27 29 31 33 35 38 40 41 42 44 45 47 52 52 55 60 59 63 72 74 67 66 62 61 63 61 66 63 59 58 56 58 55 56 55 51 52 47 41 40
25 25 26 27 28 30 32 34 35 35 37 40 42 44 46 46 52 53 55 55 55 60 65 67 66 77 71 69 65 65 66 67 68 63 60 60 59 55 54 47 53 49 46 45 43
20 22 24 26 28 30 32 34 36 37 39 41 43 44 44 50 53 55 56 57 59 58 58 64 64 69 76 74 73 71 73 71 68 68 67 62 60 59 54 53 47 47 47 43 41
20 23 24 27 30 32 35 38 39 41 44 47 47 47 50 51 53 56 58 60 61 61 61 61 63 67 68 74 76 74 72 72 64 69 67 68 62 55 56 55 49 45 43 43 43
25 27 28 30 33 35 38 40 43 45 46 49 51 53 59 61 60 59 59 62 64 64 62 66 65 64 66 69 71 73 72 70 66 68 74 76 60 53 48 51 48 49 49 46 46
26 27 29 31 33 37 39 41 45 48 50 53 56 59 63 65 68 69 69 66 66 67 68 69 68 67 66 65 70 69 68 66 67 62 62 64 58 51 44 47 48 50 48 48 44
26 28 31 34 36 38 41 43 47 51 57 59 62 68 71 75 78 75 76 73 72 72 72 72 73 65 60 60 63 61 63 63 60 58 55 57 55 51 48 46 44 42 43 44 39
28 30 32 35 37 39 41 45 50 53 59 65 71 71 67 66 69 67 74 75 75 75 77 77 71 64 65 68 65 64 63 61 58 58 58 53 54 50 46 44 38 36 38 37 35
28 29 32 35 37 40 43 47 52 57 60 64 54 47 39 36 38 34 48 64 67 73 73 76 69 69 70 70 67 66 65 60 59 57 56 54 57 48 43 42 39 38 35 32 31
28 29 32 35 37 41 44 48 52 56 57 55 41 36 31 34 22 26 25 41 50 58 63 70 68 71 71 71 68 67 64 61 61 59 57 53 57 48 37 37 37 37 33 30 29
28 31 33 36 38 41 43 47 52 54 51 41 37 36 33 28 22 19 18 20 26 43 51 59 67 71 72 66 68 64 65 62 63 61 59 55 56 37 36 35 31 28 29 27 28
33 33 36 38 39 41 43 47 51 51 43 35 32 33 33 21 22 23 19 18 17 21 31 50 52 58 63 65 66 64 66 62 62 63 65 53 54 28 29 31 27 31 34 31 27
34 35 37 38 39 42 44 47 49 44 37 32 33 30 30 24 15 20 20 21 16 18 18 33 43 51 57 60 60 64 65 64 65 65 56 51 54 28 18 30 26 31 29 19 18
33 36 35 35 38 40 41 44 50 41 30 29 32 26 22 20 12 13 20 17 19 13 9 20 24 38 46 54 55 61 64 64 66 63 54 49 51 36 26 20 24 22 19 18 23
35 35 34 32 34 37 39 45 48 37 29 31 26 22 19 18 15 9 14 14 21 18 13 8 15 20 23 40 49 54 58 55 56 59 57 51 45 42 31 26 24 14 16 19 18
35 37 34 32 32 35 38 42 41 34 28 30 27 21 17 11 9 9 9 13 16 17 14 12 16 16 22 27 44 49 53 54 57 56 57 53 48 43 34 24 19 22 22 19 19
34 37 35 30 28 32 37 39 38 32 29 31 26 23 17 10 10 8 8 12 10 13 13 16 19 21 22 23 34 45 50 54 55 55 55 52 49 46 36 27 30 24 24 19 19
37 38 36 32 28 30 35 41 40 28 26 26 22 22 19 14 9 12 9 3 8 13 12 10 16 18 18 30 33 37 48 53 57 57 55 55 53 49 40 32 33 25 19 16 17
36 39 39 36 30 28 30 37 39 30 21 22 18 18 17 16 12 11 8 9 5 9 17 15 13 17 14 24 34 40 44 53 59 60 59 59 55 43 31 41 32 26 24 21 17
36 38 40 38 33 32 31 33 33 28 19 18 20 18 19 17 19 18 15 18 14 13 10 17 16 21 17 19 28 40 45 49 60 61 57 54 55 34 40 36 34 33 30 27 15
37 37 40 39 32 31 30 33 35 29 19 17 13 18 20 19 18 23 20 20 22 21 20 17 17 19 17 20 24 33 47 46 61 64 61 53 56 40 47 38 41 36 34 26 15
37 35 38 39 34 30 30 32 34 29 21 18 14 15 21 22 23 19 14 19 22 21 21 19 14 18 15 16 24 28 40 52 59 64 62 56 46 51 48 47 42 38 33 26 15
36 35 36 37 32 27 27 31 33 33 25 20 17 17 18 22 23 18 17 9 9 12 16 16 18 19 11 15 19 21 29 46 54 62 63 60 51 56 54 49 39 39 34 24 16
Wind_Direction
275 271 268 265 262 259 253 250 250 251 253 253 253 253 252 250 246 242 240 242 242 239 238 235 236 235 233 231 234 235 236 234 231 222 221 228 228 236 246 255 261 263 276 276 271
278 278 279 277 274 270 267 266 264 261 254 248 248 250 251 252 252 249 243 242 242 241 240 240 238 238 234 232 234 237 241 239 238 239 239 239 243 239 243 251 257 261 268 271 272
280 279 278 278 276 275 272 271 270 269 268 266 261 252 246 245 245 244 247 246 246 246 244 239 237 241 233 228 234 236 243 246 243 243 244 248 250 246 243 241 247 260 258 265 280
286 284 283 282 281 280 279 278 275 271 266 266 266 266 262 256 257 249 244 244 243 245 238 244 243 238 246 243 241 245 244 247 246 250 248 252 261 259 248 246 256 268 270 274 270
287 285 282 279 277 274 273 272 272 273 272 270 266 262 261 261 259 258 251 246 244 244 241 242 240 243 240 242 245 247 249 251 254 255 254 256 255 261 267 273 269 276 269 273 271
293 290 288 286 284 282 280 278 275 270 266 264 265 265 264 260 256 255 255 252 248 245 243 243 247 239 240 241 243 246 250 254 256 255 253 258 255 256 257 265 274 270 273 277 272
297 293 292 291 290 290 287 285 283 282 280 275 270 264 260 257 257 256 254 253 251 249 245 244 246 241 240 241 245 246 249 250 251 254 257 256 253 253 267 269 266 264 268 268 268
302 300 299 297 297 295 293 293 292 289 286 283 279 274 268 262 257 255 254 253 252 249 247 245 244 244 244 245 246 248 248 252 255 256 259 257 256 262 266 266 265 261 260 258 260
310 308 305 303 302 299 297 295 290 288 285 282 277 275 272 270 265 258 255 251 249 249 246 246 244 242 243 244 245 247 248 250 252 249 253 255 258 262 261 260 260 260 262 259 260
309 307 304 300 298 297 296 295 295 294 291 288 284 278 274 269 265 261 257 253 249 246 245 244 243 242 242 243 246 250 252 250 250 249 251 255 259 262 259 255 251 254 254 254 258
306 305 304 304 303 303 302 301 301 303 298 296 290 284 276 270 268 262 254 248 245 244 243 242 242 243 247 247 245 246 248 248 248 250 248 254 255 254 256 255 249 251 256 256 257
308 308 310 309 307 306 304 302 301 304 306 306 307 304 298 288 272 260 250 246 242 241 241 240 241 241 239 240 241 241 244 246 249 250 253 250 254 250 250 254 258 256 252 255 252
313 314 315 313 311 310 311 312 315 317 318 318 316 305 300 298 296 286 250 238 238 235 236 238 237 235 236 237 237 239 240 242 245 249 251 253 251 249 247 251 252 254 253 244 243
318 318 319 318 317 317 318 321 322 324 324 317 313 309 289 294 302 303 276 247 231 233 232 232 231 232 234 235 235 235 239 239 242 244 247 251 250 245 246 249 250 253 249 243 246
323 321 322 321 321 322 323 326 326 328 321 312 314 310 303 301 291 289 292 277 254 244 231 226 228 228 228 231 234 233 234 236 238 240 243 245 253 237 239 244 247 254 249 243 240
325 327 326 323 324 326 327 330 331 328 319 312 317 312 312 299 275 288 275 293 245 244 250 229 228 225 228 227 228 229 233 233 236 238 238 239 251 238 237 240 236 232 241 244 241
328 331 326 325 325 328 331 333 331 329 324 320 314 309 310 305 264 269 287 290 245 244 240 234 232 228 223 225 225 225 228 229 232 235 237 236 242 237 238 228 226 231 234 237 233
333 334 329 327 325 328 332 331 334 336 328 324 320 324 310 315 285 261 282 287 279 262 189 223 232 226 227 226 224 222 226 227 229 233 234 236 234 231 219 218 225 239 232 219 224
336 337 332 329 326 327 332 330 339 340 334 335 332 321 320 312 315 265 262 286 271 247 194 234 197 203 214 223 222 220 222 224 228 230 229 229 227 226 216 215 237 226 211 215 230
338 339 337 332 329 327 328 338 343 336 328 337 330 324 323 301 301 303 272 254 266 263 247 219 210 201 213 211 218 218 222 219 222 222 224 224 224 220 213 221 200 213 203 201 216
342 340 340 334 328 328 333 343 348 338 336 328 324 329 337 304 307 301 282 259 248 256 242 242 240 231 239 227 219 217 215 220 220 220 222 223 220 220 217 208 215 217 212 220 224
342 341 340 339 335 335 336 344 351 342 334 332 322 326 325 314 272 313 312 281 269 267 263 254 248 242 235 232 224 225 213 214 215 217 217 220 216 222 214 216 206 207 201 212 230
344 344 344 342 337 340 340 345 350 347 332 340 327 322 338 332 307 290 281 281 274 278 258 266 262 237 224 228 228 228 220 214 211 212 211 216 214 204 215 202 194 185 203 213 207
345 345 344 347 339 339 345 346 351 343 324 335 338 339 327 326 315 312 291 261 266 258 259 261 251 247 241 241 236 227 223 215 215 207 209 210 216 193 191 196 190 186 191 192 199
342 345 345 351 339 336 343 348 352 349 326 333 329 335 331 328 308 305 288 275 270 271 260 261 239 254 242 239 245 235 224 212 212 206 205 205 210 177 193 190 186 188 187 185 186
340 344 344 351 342 338 342 345 352 351 337 341 335 331 324 321 321 329 306 285 262 263 244 254 250 251 251 265 240 235 230 216 212 206 201 203 198 180 184 185 188 188 191 182 166
340 341 342 346 342 337 340 343 349 357 343 354 359 357 337 318 322 332 326 279 236 223 216 220 233 246 229 238 236 250 233 219 211 206 201 200 175 179 183 185 187 186 181 160 169